Location: Igon
(43.1667°N, 0.2333°W)
Time: 09:49:25
(UTC+00:00)

Cosmos 1709 Rocket - Pass Details

Date: 29 November 2020
Orbit: 947 x 1003 km, 82.9° (Epoch: 24 January)

Event Time Altitude Azimuth Distance (km) Brightness Sun altitude
Rises 04:56:50 0° 200° (SSW) 3,703 6.9 -23.9°
Reaches altitude 10° 04:59:25 10° 205° (SSW) 2,762 6.2 -23.4°
Maximum altitude 05:05:37 54° 282° (WNW) 1,204 4.1 -22.3°
Drops below altitude 10° 05:11:53 10° 359° (N) 2,783 6.3 -21.2°
Sets 05:14:30 0° 4° (N) 3,734 7.0 -20.7°
